Cleveland Burke, OH

3:41 AM EST on February 25, 2018 (GMT -0500)
Burke Lakefront

Weather History for KBKL - March, 2012

Change the Weather History Date:

Wednesday, March 7, 2012

  Actual Average Record
Temperature  
Mean Temperature 60 °F -  
Max Temperature 70 °F 38 °F 75 °F (2009)
Min Temperature 51 °F 26 °F 5 °F (2007)
Degree Days  
Heating Degree Days 4    
Growing Degree Days 10 (Base 50)    
Moisture  
Dew Point 32 °F    
Average Humidity 34    
Maximum Humidity 44    
Minimum Humidity 26    
Precipitation  
Precipitation 0.00 in - - ()
Sea Level Pressure  
Sea Level Pressure 30.16 in    
Wind  
Wind Speed 18 mph (South)    
Max Wind Speed 26 mph    
Max Gust Speed 36 mph    
Visibility 10 miles    
Events      
Averages and records for this station are not official NWS values.
T = Trace of Precipitation, MM = Missing Value Source: NWS Daily Summary

Daily Weather History Graph

Daily Weather History Graph

Search for Another Location

Airport or City:

Trip Planner

Search our weather history database for the weather conditions in past years. The results will help you decide how hot, cold, wet, or windy it might be!

Date:

Astronomy

Mar. 07, 2012 Rise Set
Actual Time 6:50 AM EST 6:24 PM EST
Civil Twilight 6:23 AM EST 6:52 PM EST
Nautical Twilight 5:51 AM EST 7:24 PM EST
Astronomical Twilight 5:19 AM EST 7:56 PM EST
Moon 6:00 PM EST (3/7) 6:00 AM EST (3/7)
Length of Visible Light 12h 29m
Length of Day
11h 33m
Waxing Gibbous, 99% of the Moon is Illuminated
Mar 7
Waxing Gibbous
Mar 8
Full
Mar 14
Last Quarter
Mar 22
New
Mar 30
First Quarter

Hourly Weather History & Observations

Time (EST) Temp. Dew Point Humidity Pressure Visibility Wind Dir Wind Speed Gust Speed Precip Events Conditions
12:53 AM 54.0 °F 23.0 °F 30% 30.19 in 10.0 mi South 15.0 mph 26.5 mph N/A   Clear
1:53 AM 55.9 °F 21.0 °F 26% 30.20 in 10.0 mi South 16.1 mph 29.9 mph N/A   Clear
2:53 AM 54.0 °F 21.9 °F 29% 30.22 in 10.0 mi South 18.4 mph 26.5 mph N/A   Clear
3:53 AM 53.1 °F 23.0 °F 31% 30.23 in 10.0 mi South 19.6 mph 31.1 mph N/A   Clear
4:53 AM 53.1 °F 21.9 °F 30% 30.23 in 10.0 mi South 17.3 mph 28.8 mph N/A   Clear
5:53 AM 52.0 °F 23.0 °F 32% 30.24 in 10.0 mi South 17.3 mph 26.5 mph N/A   Clear
6:53 AM 51.8 °F 24.8 °F 35% 30.24 in 10.0 mi South 18.4 mph 27.6 mph N/A   Clear
7:53 AM 53.1 °F 24.1 °F 32% 30.25 in 10.0 mi South 17.3 mph 35.7 mph N/A   Clear
8:53 AM 54.0 °F 26.1 °F 34% 30.25 in 10.0 mi South 19.6 mph 32.2 mph N/A   Clear
9:53 AM 57.0 °F 28.0 °F 33% 30.24 in 10.0 mi South 24.2 mph 34.5 mph N/A   Clear
10:53 AM 60.1 °F 30.9 °F 33% 30.23 in 10.0 mi SSW 19.6 mph 31.1 mph N/A   Clear
11:53 AM 63.0 °F 32.0 °F 31% 30.20 in 10.0 mi South 16.1 mph 27.6 mph N/A   Clear
12:53 PM 63.0 °F 33.1 °F 33% 30.18 in 10.0 mi South 17.3 mph 27.6 mph N/A   Clear
1:53 PM 69.1 °F 34.0 °F 27% 30.14 in 10.0 mi SSW 21.9 mph 29.9 mph N/A   Clear
2:53 PM 69.1 °F 36.0 °F 30% 30.12 in 10.0 mi SSW 26.5 mph 35.7 mph N/A   Clear
3:53 PM 70.0 °F 37.0 °F 30% 30.11 in 10.0 mi SSW 21.9 mph 27.6 mph N/A   Clear
4:53 PM 69.1 °F 39.0 °F 33% 30.09 in 10.0 mi SSW 15.0 mph 25.3 mph N/A   Clear
5:53 PM 66.9 °F 41.0 °F 39% 30.09 in 10.0 mi SSW 19.6 mph 32.2 mph N/A   Clear
6:53 PM 66.0 °F 41.0 °F 40% 30.09 in 10.0 mi South 18.4 mph 25.3 mph N/A   Clear
7:53 PM 64.9 °F 41.0 °F 42% 30.08 in 10.0 mi SSW 15.0 mph 25.3 mph N/A   Clear
8:53 PM 64.9 °F 41.0 °F 42% 30.08 in 10.0 mi South 18.4 mph 29.9 mph N/A   Clear
9:53 PM 64.0 °F 39.9 °F 41% 30.07 in 10.0 mi South 20.7 mph 25.3 mph N/A   Clear
10:53 PM 63.0 °F 39.9 °F 43% 30.07 in 10.0 mi South 17.3 mph 25.3 mph N/A   Clear
11:53 PM 62.1 °F 39.9 °F 44% 30.04 in 10.0 mi South 18.4 mph 31.1 mph N/A   Scattered Clouds